This is the latest recevied weather packets stored in our database for station/object OK1FET-6. If no packets are shown the sender has not sent any weather packets the latest 10 day(s).
| Time | Temp. | Humidity | Pressure | Rain* | Wind** | Luminosity | Snow |
|---|---|---|---|---|---|---|---|
| 1778422217 | 37.78° C | 23% | 1010.4 hPa | 0 mm | - | - | - |
| 1778421621 | 39.44° C | 22% | 1010.5 hPa | 0 mm | - | - | - |
| 1778421024 | 41.67° C | 21% | 1010.7 hPa | 0 mm | - | - | - |
| 1778420428 | 42.78° C | 21% | 1010.9 hPa | 0 mm | - | - | - |
| 1778419832 | 43.33° C | 21% | 1011.1 hPa | 0 mm | - | - | - |
| 1778419236 | 43.33° C | 21% | 1011.2 hPa | 0 mm | - | - | - |
| 1778418640 | 44.44° C | 21% | 1011.4 hPa | 0 mm | - | - | - |
| 1778418044 | 44.44° C | 21% | 1011.6 hPa | 0 mm | - | - | - |
| 1778417447 | 44.44° C | 22% | 1011.7 hPa | 0 mm | - | - | - |
| 1778416851 | 45° C | 21% | 1011.8 hPa | 0 mm | - | - | - |
| 1778416255 | 46.11° C | 22% | 1012 hPa | 0 mm | - | - | - |
| 1778415659 | 45.56° C | 22% | 1012.3 hPa | 0 mm | - | - | - |
| 1778415063 | 45° C | 23% | 1012.3 hPa | 0 mm | - | - | - |
| 1778414467 | 44.44° C | 24% | 1012.5 hPa | 0 mm | - | - | - |
| 1778413871 | 44.44° C | 24% | 1012.8 hPa | 0 mm | - | - | - |
| 1778413274 | 46.11° C | 24% | 1013 hPa | 0 mm | - | - | - |
| 1778412678 | 45° C | 24% | 1013.2 hPa | 0 mm | - | - | - |
| 1778412082 | 43.89° C | 25% | 1013.2 hPa | 0 mm | - | - | - |
| 1778411486 | 44.44° C | 26% | 1013.4 hPa | 0 mm | - | - | - |
| 1778410890 | 43.33° C | 26% | 1013.4 hPa | 0 mm | - | - | - |
| 1778410293 | 43.33° C | 27% | 1013.6 hPa | 0 mm | - | - | - |
| 1778409697 | 42.78° C | 27% | 1013.7 hPa | 0 mm | - | - | - |
| 1778409101 | 43.33° C | 28% | 1013.9 hPa | 0 mm | - | - | - |
| 1778408505 | 42.78° C | 28% | 1014 hPa | 0 mm | - | - | - |
| 1778407909 | 42.22° C | 29% | 1014.2 hPa | 0 mm | - | - | - |
* Rain latest hour (hover to see other rain measurements)
** Current wind speed in m/s (hover to see current wind gust speed)